User: anonymous
Location: Caltech
(34.1382°N, 118.1253°W)
Time: 19:19:07
(UTC-07:00)
Language:

ITAMSAT 1 - Orbit

View from above orbital plane
View from above orbital plane
View from above satellite
View from above satellite

Ground track
Ground track

The orbit data is extracted from the following two-line orbital elements,

1 22826U 93061D   14265.43043259  .00000136  00000-0  69685-4 0  5328
2 22826 098.6656 211.2359 0008945 013.2671 346.8744 14.30051258 94818
Epoch (UTC): 22 September 2014 10:19:49
Eccentricity: 0.0008945
inclination: 98.6656°
perigee height: 785 km
apogee height: 798 km
right ascension of ascending node: 211.2359°
argument of perigee: 13.2671°
revolutions per day: 14.30051258
mean anomaly at epoch: 346.8744°
orbit number at epoch: 9481

The dashed part of the orbit path shows where the satellite is in the earth's shadow,  

DLR